Location: Ellerstadt
(49.4644°N, 8.2615°E)
Time: 11:50:43
(UTC+00:00)

Cosmos 192 - Pass Details

Date: 03 March 2021
Orbit: 700 x 714 km, 74.0° (Epoch: 13 April)

Event Time Altitude Azimuth Distance (km) Brightness Sun altitude
Rises 19:15:22 0° 193° (SSW) 3,074 7.6 -20.5°
Reaches altitude 10° 19:17:41 10° 191° (S) 2,161 6.8 -20.9°
Maximum altitude 19:22:31 67° 110° (ESE) 763 4.2 -21.6°
Drops below altitude 10° 19:27:24 10° 28° (NNE) 2,184 6.7 -22.4°
Sets 19:29:45 0° 26° (NNE) 3,109 7.6 -22.7°
